| time (UTC) | temp F | wind direction | speed knots | gust knots | rain 1hr in | rain 24hr in | rain mn in | humidity % | barometer mb |
| 20260506134551 | 56 | 0 | 0.9 | 4.3 | 0.07 | 0.23 | 0.23 | 78 | 1006.8 |
| 20260506133049 | 56 | 105 | 0.9 | 3.5 | 0.10 | 0.23 | 0.23 | 78 | 1006.7 |
| 20260506131548 | 55 | 89 | 0.0 | 2.6 | 0.10 | 0.22 | 0.22 | 78 | 1007.1 |
| 20260506130047 | 55 | 0 | 0.0 | 2.6 | 0.09 | 0.19 | 0.19 | 78 | 1007.8 |
| 20260506124546 | 55 | 0 | 0.9 | 3.5 | 0.07 | 0.16 | 0.16 | 78 | 1007.8 |
| 20260506123051 | 54 | 0 | 0.0 | 0.9 | 0.05 | 0.13 | 0.13 | 78 | 1007.9 |
| 20260506121549 | 55 | 0 | 0.0 | 0.0 | 0.05 | 0.12 | 0.12 | 78 | 1007.8 |
| 20260506120058 | 55 | 0 | 0.0 | 0.9 | 0.04 | 0.10 | 0.10 | 78 | 1007.5 |
| 20260506114559 | 54 | 0 | 0.0 | 1.7 | 0.03 | 0.09 | 0.09 | 78 | 1007.6 |
| 20260506113053 | 54 | 0 | 0.0 | 0.0 | 0.03 | 0.08 | 0.08 | 78 | 1007.7 |
| 20260506111551 | 54 | 0 | 0.0 | 0.0 | 0.02 | 0.07 | 0.07 | 78 | 1007.7 |
| 20260506110058 | 54 | 0 | 0.0 | 0.0 | 0.03 | 0.06 | 0.06 | 77 | 1007.6 |
| 20260506104550 | 53 | 0 | 0.0 | 0.0 | 0.03 | 0.06 | 0.06 | 77 | 1007.7 |
| 20260506103048 | 53 | 0 | 0.0 | 0.0 | 0.03 | 0.05 | 0.05 | 77 | 1007.7 |
| 20260506101546 | 53 | 0 | 0.0 | 0.0 | 0.03 | 0.05 | 0.05 | 76 | 1007.7 |
| 20260506100051 | 53 | 0 | 0.0 | 0.0 | 0.02 | 0.03 | 0.03 | 76 | 1007.4 |
| 20260506094607 | 53 | 0 | 0.0 | 0.0 | 0.02 | 0.03 | 0.03 | 75 | 1007.3 |
| 20260506093055 | 53 | 0 | 0.0 | 0.0 | 0.02 | 0.02 | 0.02 | 74 | 1007.2 |
| 20260506091549 | 54 | 0 | 0.0 | 0.0 | 0.02 | 0.02 | 0.02 | 72 | 1007.4 |
| 20260506090049 | 54 | 0 | 0.0 | 0.0 | 0.01 | 0.01 | 0.01 | 70 | 1007.3 |
| 20260506084554 | 54 | 0 | 0.0 | 0.0 | 0.01 | 0.01 | 0.01 | 68 | 1007.4 |
| 20260506083103 | 54 | 0 | 0.0 | 0.0 | 0.00 | 0.00 | 0.00 | 67 | 1007.9 |
| 20260506081555 | 54 | 0 | 0.0 | 0.0 | 0.00 | 0.00 | 0.00 | 67 | 1008.1 |
| 20260506073048 | 55 | 0 | 0.0 | 0.0 | 0.00 | 0.00 | 0.00 | 66 | 1007.4 |
| 20260506071546 | 55 | 0 | 0.0 | 0.0 | 0.00 | 0.00 | 0.00 | 66 | 1007.4 |
| 20260506061551 | 56 | 0 | 0.0 | 0.0 | 0.00 | 0.00 | 0.00 | 65 | 1008.1 |
| 20260506044552 | 57 | 0 | 0.0 | 0.9 | 0.00 | 0.00 | 0.00 | 67 | 1009.1 |
| 20260506043053 | 58 | 0 | 0.0 | 0.0 | 0.00 | 0.00 | 0.00 | 66 | 1009.0 |
| 20260506041551 | 59 | 0 | 0.0 | 2.6 | 0.00 | 0.00 | 0.00 | 65 | 1009.0 |
| 20260506040101 | 60 | 0 | 0.0 | 5.2 | 0.00 | 0.00 | 0.00 | 64 | 1009.2 |
| 20260506034558 | 60 | 0 | 0.0 | 2.6 | 0.00 | 0.00 | 0.00 | 63 | 1009.2 |
| 20260506033054 | 59 | 57 | 0.9 | 4.3 | 0.00 | 0.00 | 0.00 | 60 | 1009.2 |
| 20260506031558 | 60 | 0 | 0.0 | 0.9 | 0.00 | 0.00 | 0.00 | 56 | 1008.9 |
| 20260506030052 | 61 | 0 | 0.0 | 0.9 | 0.00 | 0.00 | 0.00 | 54 | 1008.6 |
| 20260506024546 | 62 | 65 | 0.9 | 0.9 | 0.00 | 0.00 | 0.00 | 51 | 1008.6 |
| 20260506023048 | 64 | 0 | 0.0 | 0.0 | 0.00 | 0.00 | 0.00 | 48 | 1008.7 |
| 20260506021556 | 66 | 0 | 0.0 | 3.5 | 0.00 | 0.00 | 0.00 | 45 | 1008.6 |
| 20260506020047 | 66 | 0 | 0.0 | 1.7 | 0.00 | 0.00 | 0.00 | 45 | 1008.6 |
| 20260506014548 | 67 | 0 | 0.0 | 1.7 | 0.00 | 0.00 | 0.00 | 43 | 1008.3 |
| 20260506013047 | 67 | 58 | 0.0 | 2.6 | 0.00 | 0.00 | 0.00 | 43 | 1008.5 |
| 20260506011553 | 67 | 0 | 0.0 | 0.0 | 0.00 | 0.00 | 0.00 | 43 | 1008.3 |
| 20260506010048 | 68 | 0 | 0.0 | 0.0 | 0.00 | 0.00 | 0.00 | 41 | 1008.2 |
| 20260506004549 | 70 | 0 | 0.0 | 1.7 | 0.00 | 0.00 | 0.00 | 39 | 1008.1 |
| 20260506003046 | 70 | 0 | 0.0 | 1.7 | 0.00 | 0.00 | 0.00 | 38 | 1007.8 |
| 20260506001550 | 71 | 37 | 0.9 | 3.5 | 0.00 | 0.00 | 0.00 | 36 | 1007.8 |
| 20260506000049 | 71 | 329 | 1.7 | 4.3 | 0.00 | 0.00 | 0.00 | 36 | 1007.8 |
| 20260505234557 | 72 | 187 | 4.3 | 9.6 | 0.00 | 0.00 | 0.00 | 34 | 1007.8 |
| 20260505233105 | 73 | 261 | 3.5 | 7.0 | 0.00 | 0.00 | 0.00 | 33 | 1007.5 |
| 20260505231554 | 73 | 59 | 4.3 | 10.4 | 0.00 | 0.00 | 0.00 | 31 | 1007.3 |
| 20260505230051 | 74 | 224 | 3.5 | 8.7 | 0.00 | 0.00 | 0.00 | 30 | 1007.3 |
| 20260505224551 | 74 | 321 | 5.2 | 14.8 | 0.00 | 0.00 | 0.00 | 30 | 1007.3 |
| 20260505223054 | 74 | 295 | 3.5 | 8.7 | 0.00 | 0.00 | 0.00 | 29 | 1007.0 |
| 20260505221551 | 75 | 311 | 3.5 | 10.4 | 0.00 | 0.00 | 0.00 | 28 | 1006.8 |
| 20260505220047 | 75 | 288 | 6.1 | 17.4 | 0.00 | 0.00 | 0.00 | 27 | 1006.8 |
| 20260505214555 | 76 | 213 | 6.1 | 17.4 | 0.00 | 0.00 | 0.00 | 26 | 1006.6 |
| 20260505213053 | 76 | 260 | 5.2 | 20.9 | 0.00 | 0.00 | 0.00 | 26 | 1006.4 |
| 20260505211551 | 77 | 132 | 3.5 | 13.9 | 0.00 | 0.00 | 0.00 | 28 | 1005.9 |
| 20260505210048 | 76 | 186 | 3.5 | 11.3 | 0.00 | 0.00 | 0.00 | 30 | 1006.0 |
| 20260505204552 | 76 | 136 | 5.2 | 15.6 | 0.00 | 0.00 | 0.00 | 29 | 1006.1 |
| 20260505203050 | 76 | 257 | 6.1 | 16.5 | 0.00 | 0.00 | 0.00 | 29 | 1006.0 |
| 20260505201557 | 76 | 122 | 7.0 | 13.0 | 0.00 | 0.00 | 0.00 | 30 | 1005.9 |
| 20260505200051 | 75 | 245 | 3.5 | 9.6 | 0.00 | 0.00 | 0.00 | 31 | 1006.1 |
| 20260505194606 | 75 | 238 | 6.1 | 17.4 | 0.00 | 0.00 | 0.00 | 30 | 1006.1 |
| 20260505193049 | 75 | 98 | 5.2 | 15.6 | 0.00 | 0.00 | 0.00 | 30 | 1005.9 |
| 20260505191546 | 76 | 195 | 3.5 | 11.3 | 0.00 | 0.00 | 0.00 | 28 | 1005.8 |
| 20260505190051 | 77 | 160 | 5.2 | 14.8 | 0.00 | 0.00 | 0.00 | 28 | 1005.8 |
| 20260505184549 | 78 | 333 | 7.0 | 16.5 | 0.00 | 0.00 | 0.00 | 26 | 1006.0 |
| 20260505183051 | 78 | 172 | 5.2 | 15.6 | 0.00 | 0.00 | 0.00 | 29 | 1006.6 |
| 20260505181552 | 76 | 266 | 7.0 | 18.2 | 0.00 | 0.00 | 0.00 | 30 | 1007.0 |
| 20260505180053 | 76 | 105 | 6.1 | 16.5 | 0.00 | 0.00 | 0.00 | 31 | 1006.9 |
| 20260505174555 | 76 | 248 | 5.2 | 14.8 | 0.00 | 0.00 | 0.00 | 32 | 1007.2 |
| 20260505173049 | 75 | 255 | 4.3 | 15.6 | 0.00 | 0.00 | 0.00 | 33 | 1007.7 |
| 20260505171553 | 76 | 280 | 5.2 | 18.2 | 0.00 | 0.00 | 0.00 | 33 | 1007.5 |
| 20260505170054 | 76 | 158 | 5.2 | 13.0 | 0.00 | 0.00 | 0.00 | 33 | 1007.1 |
| 20260505164616 | 75 | 227 | 4.3 | 21.7 | 0.00 | 0.00 | 0.00 | 34 | 1007.3 |
| 20260505163053 | 75 | 115 | 7.8 | 17.4 | 0.00 | 0.00 | 0.00 | 34 | 1007.8 |
| 20260505161607 | 75 | 149 | 4.3 | 14.8 | 0.00 | 0.00 | 0.00 | 35 | 1008.1 |
| 20260505153054 | 73 | 160 | 6.1 | 17.4 | 0.00 | 0.00 | 0.00 | 36 | 1008.3 |
| 20260505151554 | 72 | 283 | 7.0 | 18.2 | 0.00 | 0.00 | 0.00 | 37 | 1008.6 |